Temperature
-0 1 1 1 2 2 2 2 2 3 4 5 5 5 5 5 6 6 6 6 7 8 8 9 10 11 12 13 14 14 14 15 15 15 15 14 14 14 13 13 13 13 12 12
0 1 1 2 2 3 3 3 3 3 3 4 5 5 5 5 5 5 5 5 6 7 7 8 9 10 11 12 13 13 14 14 14 14 14 14 14 13 13 13 12 12 12 12
-0 0 1 1 2 3 3 3 3 3 4 4 4 4 4 5 5 5 5 5 5 6 7 7 8 9 10 11 12 13 13 14 14 14 13 13 13 13 12 12 12 12 12 11
-1 -1 -1 1 2 3 3 3 3 3 3 3 4 4 4 4 4 4 4 5 5 5 6 7 8 9 10 11 12 12 13 13 13 13 13 13 12 12 12 12 12 12 11 11
-1 -1 -1 1 2 2 2 2 2 2 3 3 3 4 4 4 4 4 4 4 5 5 6 7 8 8 9 10 11 11 12 12 12 12 12 12 12 12 12 12 11 11 11 11
-2 -1 -0 1 2 2 2 1 2 2 2 2 2 2 3 4 4 4 4 4 5 5 6 7 7 8 8 9 10 10 11 12 12 12 12 12 12 12 12 11 11 11 11 10
-2 -1 -0 1 1 2 1 1 2 2 2 2 2 2 3 3 3 3 4 4 4 5 6 6 7 7 8 9 9 10 10 11 11 11 11 11 11 11 11 11 10 10 10 10
-2 -2 -1 1 1 1 1 2 2 2 2 2 2 2 2 2 3 3 3 3 4 4 5 6 6 6 7 8 9 9 10 10 10 10 10 10 10 10 10 10 10 10 9 9
-2 -0 0 1 1 2 2 2 2 2 2 2 2 2 2 2 2 2 3 3 3 4 4 5 5 6 7 7 8 8 9 9 10 10 10 10 10 10 9 9 9 9 9 9
-2 -2 -1 1 1 2 2 2 2 2 2 2 1 1 1 2 2 2 2 3 3 3 4 4 5 5 6 7 7 8 8 8 9 9 9 9 9 9 9 9 9 9 9 9
-2 -1 -1 0 1 2 2 1 1 1 1 1 1 1 1 1 1 2 2 2 3 3 3 4 4 5 5 6 6 7 7 7 8 8 8 8 8 8 8 8 9 9 9 9
-1 -1 -1 -1 1 1 1 1 0 0 0 1 0 0 1 1 1 1 1 2 2 2 3 3 4 4 5 5 6 6 6 7 7 7 7 7 7 7 7 7 8 8 8 8
0 1 0 0 0 0 -0 -0 -0 -0 -0 -0 -0 0 0 0 1 1 1 1 2 2 2 2 3 3 4 4 5 5 6 6 6 6 6 6 6 6 6 6 6 7 7 7
-0 -0 -1 -1 -0 -0 -1 -1 -1 -1 -1 -1 -1 -0 -0 -0 0 0 1 1 1 1 2 2 2 3 3 4 4 5 5 5 5 6 6 6 6 6 6 6 6 6 6 6
-1 -1 -1 -1 -1 -1 -1 -2 -2 -2 -1 -1 -1 -1 -1 -1 -0 -0 0 1 1 1 1 2 2 2 2 3 3 4 4 4 5 5 5 5 5 5 5 5 5 5 5 5
-2 -2 -2 -2 -2 -2 -2 -2 -2 -2 -2 -2 -2 -1 -1 -1 -1 -0 -0 0 0 1 1 1 1 2 2 2 3 3 4 4 4 4 4 4 4 4 4 4 4 4 5 5
-3 -3 -3 -3 -3 -2 -2 -3 -3 -3 -2 -2 -2 -2 -2 -2 -1 -1 -1 -0 0 0 1 1 1 1 1 2 2 2 3 3 3 3 3 4 4 4 4 4 4 4 4 4
-3 -3 -3 -3 -3 -3 -3 -3 -3 -3 -3 -3 -3 -3 -2 -2 -2 -2 -1 -1 -1 -0 0 0 0 1 1 1 1 2 2 3 3 3 3 3 3 3 3 3 3 4 3 3
-4 -4 -4 -4 -4 -4 -4 -4 -4 -4 -3 -3 -3 -3 -3 -3 -3 -2 -2 -2 -1 -1 -0 -0 0 0 1 1 1 1 2 2 2 2 2 3 3 3 3 3 3 3 3 3
-4 -4 -4 -4 -4 -5 -5 -5 -5 -4 -4 -4 -4 -4 -3 -3 -3 -3 -2 -2 -2 -1 -1 -1 -0 0 0 1 1 1 1 2 2 2 2 2 2 2 2 2 2 3 3 3
-4 -5 -5 -5 -5 -5 -5 -5 -5 -5 -5 -5 -5 -4 -4 -4 -4 -3 -3 -3 -2 -2 -1 -1 -1 -0 0 0 0 1 1 1 1 1 1 2 2 2 2 2 2 2 2 2
-5 -5 -5 -6 -6 -6 -6 -6 -6 -6 -5 -5 -5 -5 -5 -4 -4 -4 -3 -3 -3 -2 -2 -1 -1 -1 -0 -0 -0 0 0 1 1 1 1 1 1 1 1 1 2 2 2 2
-6 -6 -6 -6 -6 -6 -6 -6 -6 -6 -6 -6 -6 -6 -5 -5 -5 -4 -4 -3 -3 -3 -2 -2 -1 -1 -1 -1 -0 -0 -0 0 0 1 0 1 1 1 1 1 1 1 1 1
-6 -7 -7 -7 -7 -7 -7 -7 -7 -7 -6 -6 -6 -6 -6 -6 -5 -5 -4 -4 -3 -3 -3 -2 -2 -2 -1 -1 -1 -1 -1 -0 -0 0 0 0 0 0 0 1 1 1 1 1
-7 -7 -7 -8 -8 -8 -8 -8 -8 -7 -7 -7 -6 -6 -6 -6 -5 -5 -4 -4 -4 -3 -3 -3 -2 -2 -2 -1 -2 -1 -1 -1 -0 -0 -0 -0 -0 -0 0 0 0 1 1 1
-8 -8 -8 -8 -8 -8 -9 -9 -8 -8 -8 -7 -7 -6 -6 -6 -6 -5 -5 -4 -4 -3 -3 -3 -3 -2 -2 -2 -2 -2 -1 -1 -1 -1 -0 -0 -0 0 0 0 0 0 0 0
-8 -9 -9 -9 -8 -9 -9 -9 -9 -8 -8 -8 -7 -6 -6 -6 -6 -5 -5 -5 -4 -4 -4 -3 -3 -3 -3 -2 -2 -2 -2 -2 -1 -1 -1 -1 -0 0 -0 0 0 -0 -0 -0
Wind_Speed
10 10 8 10 13 11 11 11 10 12 13 15 12 10 10 9 9 9 8 8 7 7 6 5 4 4 3 4 5 7 9 11 13 13 13 13 13 13 14 14 14 14 13 12
8 10 11 14 15 14 15 13 14 14 15 11 10 8 8 8 8 8 8 8 8 7 7 6 5 5 4 3 4 5 8 10 10 10 11 12 13 13 13 13 13 13 13 13
6 6 7 10 11 12 10 8 8 12 11 8 9 9 8 7 7 8 9 9 8 7 7 7 6 6 5 4 3 5 7 7 9 10 11 11 11 12 13 13 12 13 13 13
4 3 8 8 4 6 9 9 8 8 8 8 10 9 7 5 6 7 8 9 8 8 8 7 6 6 5 3 3 5 5 6 7 9 10 10 10 12 12 11 11 12 12 12
3 5 9 7 4 4 6 6 6 7 8 8 9 6 5 5 5 6 7 8 8 7 8 7 6 6 4 2 3 4 5 6 7 9 10 10 11 11 10 10 10 10 10 11
4 4 7 6 4 2 2 5 4 5 7 7 5 4 6 6 7 8 8 8 8 7 6 6 6 5 3 2 2 4 5 6 7 9 10 11 11 9 7 8 9 9 9 9
7 7 8 7 4 1 4 6 4 3 5 5 4 6 8 8 7 7 8 8 8 7 6 6 6 4 3 2 4 3 3 4 6 8 9 9 8 7 8 8 9 9 9 8
6 7 9 4 2 4 6 4 4 4 5 6 7 8 8 8 8 7 8 8 8 7 7 6 5 4 3 4 3 2 3 4 6 7 7 7 9 8 8 9 9 9 8 7
9 9 5 4 6 6 4 4 5 5 6 6 8 9 9 8 8 7 7 8 7 7 7 6 5 4 4 4 2 2 3 4 6 7 7 8 9 9 8 8 8 8 8 7
7 9 9 8 8 7 6 7 7 7 8 7 8 9 9 9 8 7 7 7 7 7 7 7 6 5 5 4 2 2 4 5 6 7 7 7 7 8 8 8 8 8 8 8
9 9 8 10 10 10 9 8 8 8 8 8 9 10 9 8 8 7 7 7 6 6 7 8 7 6 5 4 1 2 4 5 6 6 7 6 5 5 7 7 9 10 9 9
10 9 8 8 8 8 9 9 9 10 10 9 8 10 9 8 7 7 7 7 7 6 7 7 6 6 5 4 2 2 4 5 5 5 5 5 5 4 4 5 8 10 10 9
13 11 11 12 11 10 11 11 11 10 11 10 9 8 8 8 7 7 7 7 7 7 7 7 6 6 5 4 3 2 4 4 4 5 6 6 6 6 5 5 7 9 11 11
11 10 10 10 11 10 10 10 10 10 9 9 8 8 8 8 7 7 8 8 7 7 6 6 6 6 5 4 3 2 3 5 5 5 5 6 6 6 6 6 5 4 6 12
10 9 11 10 9 9 8 7 8 9 8 8 7 8 8 8 8 8 8 7 6 6 6 6 6 6 4 3 3 2 3 4 4 4 5 5 5 6 6 6 6 5 5 7
8 8 8 9 10 9 8 7 8 9 8 8 8 8 8 8 8 8 7 6 6 6 6 6 6 6 4 3 2 2 2 5 5 5 5 5 6 6 6 6 6 6 7 7
5 6 6 7 9 9 8 8 9 9 8 8 8 8 7 7 7 7 7 6 6 7 6 6 6 5 4 3 3 2 2 4 6 5 5 5 6 6 6 7 6 6 6 7
8 8 7 7 7 8 8 8 8 8 8 8 8 7 7 7 8 8 7 6 5 6 6 6 5 4 4 3 2 2 3 4 4 5 5 5 5 5 6 6 7 7 6 7
5 6 6 6 6 7 8 8 8 8 8 7 7 7 7 7 7 7 6 6 6 6 6 4 5 4 4 3 3 3 3 4 4 4 4 6 5 5 6 6 7 7 7 7
5 5 6 6 6 7 8 8 8 8 7 7 7 7 7 7 6 6 6 6 6 5 5 4 4 3 3 3 3 3 4 5 5 5 5 5 5 6 6 6 7 7 7 7
5 6 6 7 7 8 8 8 8 9 8 7 7 8 8 7 6 5 5 6 5 4 5 6 4 3 3 3 3 4 4 5 5 5 5 5 6 6 6 6 7 7 7 6
5 5 7 7 8 9 8 7 7 8 8 8 8 7 7 7 6 6 6 6 5 5 4 3 3 4 4 4 3 4 5 5 5 5 5 6 6 6 6 6 6 6 6 6
5 6 7 7 8 9 9 7 7 8 8 8 7 7 7 7 5 5 5 4 3 5 3 3 4 6 6 4 4 4 5 5 5 5 5 6 6 6 6 6 6 6 6 7
6 6 7 7 7 8 9 8 7 7 7 8 7 7 6 5 5 5 4 5 5 5 3 3 4 6 6 4 4 5 5 5 5 5 5 5 5 6 6 6 6 6 6 7
6 6 7 7 7 7 7 7 7 7 7 6 6 5 5 4 5 4 3 3 4 3 2 3 4 5 4 3 4 5 5 5 5 6 5 6 6 6 6 6 7 7 7 7
6 6 6 6 6 6 6 6 6 6 5 5 5 4 3 3 3 2 2 2 2 2 1 2 3 3 3 3 4 4 4 5 5 5 6 6 6 6 6 7 7 7 7 7
5 5 5 5 5 5 5 5 6 6 6 5 5 4 3 2 2 2 2 1 1 1 1 2 2 3 3 4 4 4 4 4 4 5 6 6 6 6 7 8 7 7 7 7
Wind_Direction
252 261 260 261 265 255 235 229 237 257 265 279 292 296 302 312 318 321 325 329 329 327 324 323 310 289 260 237 217 199 193 198 200 198 195 192 190 189 187 186 188 187 186 188
265 257 260 265 259 251 246 241 243 258 268 276 283 292 302 309 317 319 320 323 326 327 325 322 315 302 284 254 228 201 194 198 195 189 188 188 188 184 182 184 184 183 186 187
271 284 285 261 245 237 235 232 234 250 262 288 293 297 297 303 312 313 316 316 316 317 316 313 308 300 280 253 222 201 196 192 188 183 185 187 182 179 182 183 181 184 186 186
270 301 250 252 237 236 240 247 245 261 286 291 285 284 281 289 302 310 316 314 313 312 310 309 308 307 293 257 204 194 190 186 182 179 180 177 177 181 182 180 182 185 186 186
227 252 270 281 265 225 227 251 243 261 290 304 301 298 292 311 313 304 304 304 302 297 296 302 304 307 301 266 202 186 187 186 183 179 176 175 178 180 179 176 179 181 181 181
216 238 254 261 266 262 193 256 257 258 280 301 323 294 287 316 313 312 312 312 310 307 306 310 307 311 298 259 202 202 200 193 183 176 174 178 180 175 168 170 174 171 173 178
224 240 261 262 266 144 191 247 279 271 277 285 271 259 280 297 302 305 306 309 313 317 313 310 311 313 305 267 233 224 194 179 175 172 172 172 167 163 160 159 162 166 168 172
204 225 249 250 164 194 232 260 269 273 270 273 282 288 293 296 296 301 309 314 320 320 314 315 318 317 309 281 259 205 167 168 168 162 158 157 157 157 158 160 163 164 162 160
204 224 244 222 221 239 244 257 265 264 271 273 285 289 295 296 297 301 306 312 318 312 313 317 320 316 296 293 275 183 162 168 164 156 157 160 161 160 159 162 165 166 165 165
244 255 258 259 261 265 254 254 261 265 271 273 275 279 286 291 293 297 303 306 314 316 317 317 318 314 299 296 266 182 173 169 162 160 157 158 160 162 165 170 168 166 167 167
246 263 277 266 255 258 262 265 272 278 275 270 272 275 276 280 286 291 297 300 302 304 307 307 313 313 315 311 275 183 173 168 164 162 159 157 156 165 170 179 177 172 174 171
243 238 238 259 259 260 267 272 274 278 280 276 264 268 273 275 277 284 290 294 297 300 305 309 314 312 312 309 273 190 178 171 166 161 157 154 147 126 114 155 159 163 167 167
243 253 253 263 269 266 268 275 276 273 270 272 271 265 267 271 274 278 284 286 288 293 300 303 304 304 304 298 272 211 187 176 170 164 162 160 158 156 143 111 123 142 150 153
246 258 265 263 267 272 269 272 276 274 269 264 264 267 268 270 272 275 276 280 283 287 291 293 295 295 298 294 271 230 188 176 173 167 163 165 163 160 158 157 151 136 142 149
246 246 254 268 274 275 274 277 278 280 279 272 263 263 266 267 270 272 273 276 277 277 282 285 286 290 297 291 256 229 194 176 167 160 158 160 158 154 151 150 152 150 141 144
266 265 259 264 269 274 275 274 273 276 276 273 272 268 267 267 270 273 273 268 264 270 277 280 279 282 292 288 254 224 195 173 168 161 159 160 160 158 157 156 157 159 160 156
261 267 267 273 274 276 273 269 269 273 275 272 273 275 273 272 274 275 274 265 259 263 267 267 270 276 280 269 239 202 180 169 162 159 165 168 168 167 165 163 165 164 163 167
243 251 257 263 272 279 283 283 279 278 277 276 276 274 271 269 270 275 279 274 265 266 264 260 259 264 267 259 232 193 176 172 168 165 166 167 165 164 163 163 162 160 158 161
262 264 270 271 270 272 277 281 282 281 281 278 274 272 270 267 267 272 275 266 257 264 268 256 254 253 253 238 222 184 167 162 162 161 160 162 162 163 163 163 162 164 162 161
283 282 282 283 282 279 281 285 285 283 281 277 274 273 272 269 266 266 267 262 255 252 253 252 252 246 239 219 200 170 164 164 164 161 159 164 166 167 166 163 162 162 163 165
297 295 294 293 293 290 287 287 285 282 281 274 269 269 270 273 268 261 259 266 266 252 251 254 246 237 224 196 180 169 167 167 166 166 166 167 166 165 164 162 162 162 162 162
302 301 299 299 298 299 297 291 285 283 281 276 270 268 269 272 268 261 254 251 261 255 250 243 234 225 207 184 171 167 167 166 166 166 167 169 167 166 164 161 161 160 159 158
297 297 299 299 297 298 298 293 286 283 279 276 272 268 264 264 262 255 264 258 252 251 245 239 226 213 192 173 168 167 165 164 165 166 167 167 165 163 162 159 159 159 157 154
297 298 298 299 299 299 300 300 294 288 283 279 273 265 259 262 267 258 254 257 253 253 240 226 212 195 177 167 166 167 165 164 162 160 159 157 156 156 156 155 155 156 155 152
293 293 294 297 297 295 294 299 301 297 293 286 279 271 261 252 255 260 249 240 241 246 232 216 198 178 162 158 162 164 163 163 159 155 155 155 155 155 154 154 155 155 155 153
290 289 287 284 284 289 293 294 293 293 294 291 288 279 270 262 252 250 245 233 215 213 198 184 169 158 148 148 148 146 144 146 147 148 148 149 149 150 150 149 148 151 150 148
288 289 293 296 293 289 290 289 287 287 285 281 280 282 273 262 247 237 225 204 178 166 143 140 138 137 135 134 131 128 127 129 132 133 135 138 141 143 146 145 146 145 144 145
Height
1429 1425 1424 1422 1418 1417 1418 1416 1414 1403 1397 1390 1387 1385 1382 1379 1376 1373 1371 1368 1366 1364 1363 1362 1362 1363 1364 1366 1370 1373 1378 1381 1386 1391 1396 1401 1407 1412 1418 1423 1428 1433 1438 1443
1425 1419 1418 1414 1409 1407 1405 1404 1402 1398 1393 1388 1386 1383 1380 1377 1375 1372 1370 1368 1365 1363 1361 1360 1359 1359 1360 1362 1365 1368 1371 1375 1380 1385 1390 1395 1400 1406 1411 1417 1422 1427 1432 1436
1424 1418 1415 1410 1400 1398 1396 1394 1394 1392 1388 1385 1383 1380 1378 1375 1374 1371 1369 1366 1363 1360 1359 1358 1357 1356 1356 1358 1360 1363 1366 1370 1374 1379 1384 1389 1395 1400 1405 1410 1416 1421 1425 1430
1424 1422 1419 1400 1392 1392 1391 1390 1389 1387 1385 1383 1381 1377 1375 1374 1372 1369 1367 1364 1361 1359 1356 1355 1353 1353 1353 1354 1356 1358 1361 1365 1369 1374 1378 1384 1389 1394 1399 1405 1410 1415 1420 1424
1423 1421 1410 1396 1391 1390 1389 1387 1385 1384 1382 1380 1377 1374 1372 1370 1370 1368 1365 1363 1360 1357 1354 1352 1351 1350 1350 1350 1352 1354 1356 1360 1365 1369 1374 1378 1383 1388 1394 1399 1404 1409 1414 1419
1420 1417 1406 1393 1387 1384 1387 1387 1382 1380 1379 1378 1376 1376 1370 1369 1367 1364 1362 1360 1357 1354 1351 1349 1348 1347 1347 1347 1348 1350 1353 1356 1361 1365 1369 1374 1379 1384 1389 1394 1399 1404 1409 1414
1415 1412 1399 1388 1384 1384 1391 1385 1378 1377 1376 1376 1375 1373 1370 1367 1365 1363 1360 1357 1354 1351 1348 1347 1346 1345 1344 1344 1345 1347 1350 1353 1357 1361 1365 1370 1375 1379 1384 1389 1395 1399 1404 1409
1410 1408 1398 1382 1382 1384 1381 1377 1375 1374 1374 1372 1370 1368 1366 1364 1362 1359 1357 1354 1351 1348 1346 1345 1344 1342 1341 1341 1343 1345 1347 1349 1353 1357 1362 1366 1371 1375 1380 1385 1390 1394 1399 1404
1397 1390 1381 1378 1377 1376 1375 1374 1373 1371 1370 1369 1367 1365 1363 1360 1358 1356 1354 1351 1349 1346 1344 1342 1341 1340 1339 1339 1340 1341 1343 1346 1350 1354 1358 1363 1367 1371 1376 1380 1384 1389 1394 1398
1388 1380 1376 1374 1373 1372 1371 1370 1369 1368 1366 1365 1363 1361 1359 1357 1354 1352 1350 1348 1346 1344 1341 1339 1338 1337 1337 1337 1338 1339 1340 1343 1347 1350 1354 1358 1363 1367 1371 1375 1379 1383 1388 1393
1381 1374 1371 1368 1367 1367 1366 1365 1364 1362 1361 1360 1358 1356 1354 1352 1350 1348 1346 1345 1343 1341 1338 1336 1335 1333 1333 1334 1335 1336 1338 1340 1344 1347 1351 1354 1358 1363 1367 1371 1375 1379 1383 1388
1371 1367 1367 1363 1361 1361 1360 1359 1358 1357 1354 1353 1353 1350 1349 1347 1346 1344 1342 1340 1339 1337 1335 1333 1331 1330 1331 1331 1332 1333 1335 1337 1340 1343 1347 1351 1355 1359 1364 1368 1372 1377 1381 1385
1361 1359 1359 1356 1356 1355 1354 1352 1351 1350 1348 1347 1346 1345 1343 1342 1340 1339 1337 1336 1334 1333 1331 1330 1329 1328 1328 1329 1330 1331 1332 1335 1338 1340 1344 1347 1351 1355 1359 1364 1369 1373 1377 1381
1355 1355 1352 1350 1349 1348 1347 1346 1344 1342 1341 1340 1340 1338 1337 1336 1335 1334 1332 1331 1330 1329 1328 1327 1326 1325 1326 1326 1326 1328 1330 1332 1335 1337 1340 1344 1347 1351 1355 1359 1363 1368 1373 1378
1348 1348 1346 1344 1343 1342 1341 1339 1338 1336 1335 1334 1333 1333 1332 1330 1329 1328 1327 1326 1326 1325 1325 1324 1322 1322 1323 1323 1323 1325 1326 1329 1331 1334 1338 1341 1345 1348 1352 1356 1360 1364 1368 1373
1341 1341 1340 1339 1337 1336 1335 1334 1332 1330 1329 1328 1327 1326 1325 1324 1323 1322 1321 1321 1321 1320 1320 1319 1318 1319 1319 1319 1320 1321 1323 1326 1328 1331 1334 1338 1341 1345 1349 1353 1357 1360 1364 1368
1336 1334 1334 1332 1331 1330 1329 1328 1327 1325 1324 1322 1321 1320 1319 1318 1317 1316 1316 1316 1316 1315 1315 1315 1314 1315 1315 1316 1316 1318 1320 1322 1325 1328 1331 1334 1338 1342 1345 1349 1352 1356 1360 1365
1330 1330 1329 1328 1326 1325 1323 1322 1321 1319 1318 1317 1316 1315 1313 1312 1311 1310 1310 1311 1311 1310 1310 1310 1310 1311 1311 1312 1313 1315 1317 1319 1321 1325 1328 1332 1335 1339 1342 1345 1349 1353 1357 1362
1325 1324 1323 1322 1321 1320 1318 1316 1315 1314 1312 1311 1310 1308 1307 1306 1306 1305 1305 1305 1305 1304 1305 1306 1306 1307 1307 1308 1310 1312 1313 1316 1318 1321 1325 1329 1332 1336 1339 1342 1346 1350 1354 1358
1320 1319 1318 1317 1315 1314 1312 1311 1309 1307 1306 1305 1304 1302 1301 1300 1300 1300 1300 1299 1299 1299 1300 1301 1301 1302 1303 1304 1306 1308 1310 1313 1315 1318 1322 1325 1329 1332 1336 1339 1343 1347 1351 1355
1316 1315 1313 1312 1310 1308 1307 1305 1303 1301 1300 1299 1298 1296 1295 1294 1294 1294 1294 1293 1294 1295 1296 1297 1297 1298 1299 1301 1303 1305 1307 1310 1312 1315 1319 1322 1325 1329 1332 1336 1339 1343 1347 1351
1313 1311 1309 1307 1305 1302 1301 1299 1297 1295 1293 1292 1291 1290 1289 1289 1289 1288 1288 1289 1290 1291 1291 1292 1293 1294 1296 1298 1300 1302 1304 1306 1309 1312 1315 1319 1322 1325 1329 1332 1336 1340 1344 1348
1309 1307 1305 1303 1300 1297 1295 1293 1291 1289 1287 1286 1285 1284 1284 1283 1283 1283 1283 1284 1285 1286 1287 1288 1289 1291 1293 1294 1296 1298 1301 1303 1306 1309 1313 1316 1319 1322 1326 1330 1333 1337 1341 1345
1306 1304 1301 1299 1296 1293 1290 1287 1286 1284 1282 1281 1280 1279 1279 1279 1278 1278 1279 1280 1281 1282 1283 1284 1285 1287 1289 1291 1293 1295 1298 1300 1303 1306 1310 1313 1316 1320 1323 1327 1331 1335 1339 1343
1302 1300 1297 1294 1292 1289 1286 1284 1281 1279 1278 1276 1275 1274 1274 1274 1274 1274 1275 1276 1277 1278 1279 1280 1282 1284 1286 1288 1290 1292 1295 1297 1300 1304 1307 1310 1314 1317 1321 1325 1328 1332 1336 1341
1298 1295 1293 1290 1288 1285 1283 1281 1278 1276 1274 1272 1271 1271 1271 1271 1271 1272 1272 1273 1274 1275 1276 1277 1279 1281 1283 1285 1287 1290 1293 1295 1299 1302 1305 1308 1312 1315 1319 1323 1326 1331 1335 1339
1293 1291 1288 1286 1283 1282 1279 1277 1275 1273 1271 1270 1268 1268 1268 1268 1268 1269 1270 1270 1271 1273 1274 1276 1277 1279 1281 1283 1285 1288 1291 1294 1297 1300 1303 1307 1310 1314 1318 1322 1325 1329 1334 1338